Location: Holkham
(52.9500°N, 0.8167°E)
Time: 05:28:37
(UTC+00:00)

Cosmos 1867 - Pass Details

Date: 19 May 2025
Orbit: 775 x 798 km, 65.0° (Epoch: 13 June)

Event Time Altitude Azimuth Distance (km) Brightness Sun altitude
Rises 21:29:15 0° 315° (NW) 3,314 8.7 -10.7°
Reaches altitude 10° 21:31:44 10° 310° (NW) 2,380 7.4 -10.9°
Maximum altitude 21:37:00 50° 237° (WSW) 1,016 4.1 -11.3°
Enters shadow 21:41:23 15° 166° (SSE) 2,059 5.1 -11.7°
